Home   Weather   Spartanburg   Past weeks

Flag for USA Past Weather in Spartanburg, South Carolina, USA — Yesterday and Last 2 Weeks

Now
37 °F

Sunny.


Feels Like: 37 °F
Forecast: 33 / 54 °F
Wind: No wind

Location: Spartanburg Memorial

Current Time: Dec 3, 2016 at 8:43:03 am

Latest Report: Dec 3, 2016 at 8:15 am


Visibility: 10 mi

Pressure: 30.27 "Hg

Humidity: 81%

Dew Point: 32 °F

Location of SpartanburgLocation

Past Weather in Spartanburg — Graph

°F

Spartanburg Temperature Yesterday

Maximum temperature yesterday: 59 °F (at 2:55 pm)
Minimum temperature yesterday: 30 °F (at 7:35 am)
Average temperature yesterday: 45 °F

High & Low Weather Summary for the Past Weeks

 TemperatureHumidityPressure
High77 °F (Nov 18, 1:55 pm)100% (Nov 29, 11:15 pm)30.34 "Hg (Nov 29, 11:15 pm)
Low28 °F (Nov 27, 7:35 am)3% (Nov 21, 2:55 pm)29.68 "Hg (Nov 30, 5:55 pm)
Average51 °F55%30.11 "Hg
* Reported Nov 18 7:15 am — Dec 3 7:35 am, Spartanburg, Weather by CustomWeather, © 2016

Note: Actual official high and low records may vary slightly from our data, if they occured in-between our weather recording intervals... More about our weather records

Advertising

Spartanburg Weather History for the Previous 24 Hours

Scroll right to see more
 ConditionsComfort  
Time TempWeatherWind HumidityBarometerVisibility
7:35 am
Sat, Dec 3
36 °FSunny.No wind75%30.25 "Hg10 mi
7:15 am36 °FClear.No wind75%30.25 "Hg10 mi
6:55 am39 °FClear.No wind61%30.25 "Hg10 mi
6:35 am41 °FClear.No wind57%30.24 "Hg10 mi
6:15 am41 °FClear.No wind57%30.23 "Hg10 mi
5:55 am41 °FClear.5 mph57%30.22 "Hg10 mi
5:35 am43 °FClear.5 mph49%30.22 "Hg10 mi
5:15 am45 °FClear.3 mph42%30.21 "Hg10 mi
4:55 am45 °FClear.5 mph42%30.20 "Hg10 mi
4:35 am45 °FClear.5 mph42%30.21 "Hg10 mi
4:15 am46 °FClear.7 mph40%30.20 "Hg10 mi
3:15 am50 °FClear.12 mph30%30.21 "Hg10 mi
2:55 am46 °FClear.6 mph43%30.20 "Hg10 mi
2:35 am48 °FClear.7 mph40%30.21 "Hg10 mi
2:15 am48 °FClear.6 mph40%30.21 "Hg10 mi
1:55 am50 °FClear.8 mph37%30.20 "Hg10 mi
1:35 am48 °FClear.7 mph40%30.21 "Hg10 mi
1:15 am50 °FClear.7 mph37%30.21 "Hg10 mi
12:55 am50 °FClear.5 mph37%30.20 "Hg10 mi
12:35 am50 °FClear.8 mph37%30.21 "Hg10 mi
12:15 am52 °FClear.10 mph32%30.22 "Hg10 mi
11:55 pm
Fri, Dec 2
50 °FClear.10 mph37%30.21 "Hg10 mi
11:35 pm50 °FClear.7 mph37%30.21 "Hg10 mi
10:55 pm50 °FClear.5 mph37%30.20 "Hg10 mi
10:35 pm48 °FClear.5 mph43%30.19 "Hg10 mi
10:15 pm46 °FClear.5 mph43%30.20 "Hg10 mi
9:55 pm46 °FClear.6 mph46%30.20 "Hg10 mi
9:35 pm46 °FClear.5 mph46%30.20 "Hg10 mi
8:55 pm45 °FClear.No wind49%30.20 "Hg10 mi
8:35 pm45 °FClear.6 mph53%30.20 "Hg10 mi
8:15 pm48 °FClear.5 mph43%30.20 "Hg10 mi
7:55 pm46 °FClear.No wind46%30.19 "Hg10 mi
7:35 pm46 °FClear.No wind50%30.19 "Hg10 mi
7:15 pm45 °FClear.5 mph57%30.19 "Hg10 mi
6:55 pm45 °FClear.5 mph57%30.19 "Hg10 mi
6:35 pm48 °FClear.No wind50%30.18 "Hg10 mi
5:55 pm50 °FClear.No wind43%30.16 "Hg10 mi
5:35 pm52 °FClear.3 mph41%30.14 "Hg10 mi
5:15 pm54 °FSunny.3 mph35%30.14 "Hg10 mi
4:55 pm55 °FSunny.5 mph33%30.14 "Hg10 mi
4:35 pm57 °FSunny.7 mph31%30.13 "Hg10 mi
4:15 pm57 °FSunny.6 mph31%30.13 "Hg10 mi
3:55 pm57 °FSunny.8 mph29%30.13 "Hg10 mi
3:35 pm59 °FSunny.7 mph25%30.13 "Hg10 mi
3:15 pm59 °FSunny.7 mph25%30.13 "Hg10 mi
2:55 pm59 °FSunny.9 mph25%30.13 "Hg10 mi
2:35 pm57 °FSunny.8 mph27%30.12 "Hg10 mi
2:15 pm57 °FSunny.8 mph29%30.13 "Hg10 mi
1:55 pm55 °FSunny.9 mph33%30.13 "Hg10 mi
1:35 pm55 °FSunny.9 mph31%30.15 "Hg10 mi
1:15 pm55 °FSunny.10 mph31%30.16 "Hg10 mi
12:55 pm55 °FSunny.8 mph33%30.17 "Hg10 mi
12:35 pm55 °FSunny.10 mph33%30.17 "Hg10 mi
12:15 pm54 °FSunny.7 mph33%30.18 "Hg10 mi
11:55 am54 °FSunny.13 mph33%30.18 "Hg10 mi
11:35 am54 °FSunny.12 mph33%30.19 "Hg10 mi
11:15 am54 °FSunny.10 mph35%30.20 "Hg10 mi
10:55 am52 °FSunny.7 mph44%30.21 "Hg10 mi
10:35 am50 °FSunny.7 mph47%30.21 "Hg10 mi
10:15 am50 °FSunny.8 mph43%30.21 "Hg10 mi
9:55 am48 °FSunny.8 mph46%30.20 "Hg10 mi
9:15 am43 °FSunny.No wind66%30.19 "Hg10 mi
8:55 am41 °FSunny.No wind70%30.18 "Hg10 mi
8:35 am36 °FSunny.No wind87%30.17 "Hg10 mi
8:15 am34 °FSunny.No wind93%30.16 "Hg10 mi
Weather by CustomWeather, © 2016

See weather overviewHow to use our weather pages